Tracking 20626 objects as of 8-Apr-2020
HD Live streaming from Space Station
objects crossing your sky now

GAOFEN 3 DEB

Track GAOFEN 3 DEB now!
10-day predictions


NORAD ID: 42679
Int'l Code: 2016-049D
Perigee: 743.1 km
Apogee: 753.5 km
Inclination: 98.4 °
Period: 99.6 minutes
Semi major axis: 7119 km
RCS: Unknown
Launch date: August 9, 2016
Source: People's Republic of China (PRC)
Launch site: Jiuquan Satellite Launch Center, China (JSC)

Note: This is SATELLITE DEBRIS
aabbcc
Your satellite tracking list
Your tracking list is empty




NASA's NSSDC Master Catalog

Two Line Element Set (TLE):
1 42679U 16049D   20098.86836531 +.00000001 +00000-0 +12693-4 0  9993
2 42679 098.3941 112.7151 0007298 029.0827 331.0770 14.45251260193099
Source of the keplerian elements: AFSPC